Location: Observatorio Las Palmas
(29.0667°N, 110.9333°W)
Time: 10:34:28
(UTC-07:00)

Skynet4D Del rocket - Visible Passes

Search period start: 07 July 2015 00:00
Search period end: 17 July 2015 00:00
Orbit: 763 x 1291 km, 26.9° (Epoch: 04 July)

Date Brightness Start Highest point End Pass type
(mag) Time Alt. Az. Time Alt. Az. Time Alt. Az.
07 Jul 6.5 02:58:50 10° SSE 02:58:50 10° SSE 03:00:14 10° SE visible
07 Jul 5.5 04:44:52 10° SW 04:51:35 30° SSE 04:57:48 10° E visible
08 Jul 5.9 03:37:31 18° S 03:40:07 21° SSE 03:45:47 10° ESE visible
09 Jul 6.4 02:30:32 13° SE 02:30:32 13° SE 02:32:34 10° ESE visible
09 Jul 5.3 04:16:09 17° SSW 04:21:29 36° SSE 04:28:16 10° E visible
10 Jul 5.6 03:09:08 26° SSE 03:09:58 26° SSE 03:16:22 10° ESE visible
10 Jul 4.8 04:54:57 10° WSW 05:02:52 53° SSE 05:10:04 10° E visible
11 Jul 6.5 02:02:06 13° ESE 02:02:06 13° ESE 02:03:36 10° ESE visible
11 Jul 5.1 03:47:42 28° SSW 03:51:19 42° SSE 03:58:36 10° E visible
12 Jul 5.5 02:40:38 30° SE 02:40:38 30° SE 02:46:44 10° E visible
12 Jul 4.7 04:26:16 17° WSW 04:32:44 59° SSE 04:40:19 10° E visible
13 Jul 6.6 01:33:34 12° ESE 01:33:34 12° ESE 01:34:11 10° ESE visible
13 Jul 4.9 03:19:11 41° SSW 03:21:06 47° SSE 03:28:47 10° E visible
13 Jul 4.6 05:05:58 10° WSW 05:14:15 73° S 05:21:51 10° E visible
14 Jul 5.6 02:12:05 30° ESE 02:12:05 30° ESE 02:16:55 10° E visible
14 Jul 4.6 03:57:42 27° WSW 04:02:34 64° SSE 04:10:28 10° E visible
15 Jul 4.7 02:50:36 52° S 02:50:53 53° SSE 02:58:51 10° E visible
15 Jul 4.6 04:36:13 12° W 04:44:07 76° S 04:52:01 10° E visible
16 Jul 5.9 01:43:31 25° ESE 01:43:31 25° ESE 01:46:58 10° E visible
16 Jul 4.5 03:29:08 41° WSW 03:32:22 69° S 03:40:31 10° E visible
